T 2003 Dec. 21.526 TT MPC q 3.10499 (2000.0) P Q Peri. 149.127 -0.586494 -0.400625 Node 44.849 -0.779409 +0.042732 e 1.0 Incl. 93.488 +0.220333 -0.915245 >From 19 observations 2004 Apr. 25-May 8.
m1 = 13.0 + 5 logΔ + 10.0 log r